Date String (YYYY-MM-DD hh:mm:ss) UTC,Instrument flags,absolute air pressure of the measurement (hPa),sample flow rate (lpm),inlet stack bypass flow (lpm),air temperature of the measurement (°C),ambient temperature measured by the external sensor (°C),aerosol sample conditioner tube jacket temperature (°C),OPC LED temperature (°C),internal box temperature (°C),relative humidity of the measurement (%),span deviation,mass concentration of particles derived from Lorenz-Mie calculation of OPC scattering (μg/m³),mass concentration of particles derived from Lorenz-Mie calculation of OPC scattering (μg/m³),mass concentration of particles derived from Lorenz-Mie calculation of OPC scattering (μg/m³)
DateTimeUTC,F1_M11,P_M11,Q1_M11,Q2_M11,T1_M11,T2_M11,T3_M11,T4_M11,T5_M11,U1_M11,ZSPAN_M11,X2_M11,X0_M11,X1_M11
2024-05-04 02:00:00,SystemResetWarning,0827.8,5.00,000.00,025.1,024.4,000.0,033.6,026.7,015.6,0000.0,0002.73,0014.92,0000.97
2024-05-04 02:01:00,SystemResetWarning,0827.7,5.00,000.00,025.1,024.4,000.0,033.6,026.7,015.5,0000.0,0002.87,0015.68,0000.98
2024-05-04 02:02:00,SystemResetWarning,0827.8,5.00,000.00,025.1,024.4,000.0,033.6,026.7,015.5,0000.0,0002.81,0015.00,0000.97
2024-05-04 02:03:00,SystemResetWarning,0827.8,5.00,000.00,025.1,024.4,000.0,033.6,026.7,016.1,0000.0,0002.82,0015.50,0000.97
2024-05-04 02:04:00,SystemResetWarning,0827.8,4.99,000.00,025.1,024.4,000.0,033.6,026.7,016.1,0000.0,0002.94,0015.86,0000.97
2024-05-04 02:05:00,SystemResetWarning,0827.8,5.00,000.00,025.1,024.4,000.0,033.6,026.7,016.0,0000.0,0002.92,0014.67,0000.96
2024-05-04 02:06:00,SystemResetWarning,0828.0,5.00,000.00,025.0,024.4,000.0,033.6,026.7,016.7,0000.0,0003.00,0014.39,0000.97
2024-05-04 02:07:00,SystemResetWarning,0827.8,5.00,000.00,025.0,024.4,000.0,033.6,026.6,017.0,0000.0,0003.07,0014.57,0000.97
2024-05-04 02:08:00,SystemResetWarning,0827.8,5.01,000.00,025.0,024.4,000.0,033.6,026.6,017.8,0000.0,0003.03,0013.95,0000.96
2024-05-04 02:09:00,SystemResetWarning,0827.8,5.01,000.00,025.0,024.4,000.0,033.6,026.6,018.5,0000.0,0003.09,0012.61,0000.98
2024-05-04 02:10:00,SystemResetWarning,0827.8,5.00,000.00,025.0,024.4,000.0,033.5,026.6,018.8,0000.0,0003.04,0012.29,0000.98
2024-05-04 02:11:00,SystemResetWarning,0827.8,5.00,000.00,025.0,024.3,000.0,033.5,026.6,019.0,0000.0,0003.05,0011.91,0000.98
2024-05-04 02:12:00,SystemResetWarning,0827.8,5.00,000.00,024.9,024.3,000.0,033.5,026.5,019.2,0000.0,0002.96,0011.76,0000.99
2024-05-04 02:13:00,SystemResetWarning,0827.9,5.00,000.00,024.9,024.2,000.0,033.5,026.5,019.3,0000.0,0002.98,0012.22,0001.00
2024-05-04 02:14:00,SystemResetWarning,0828.0,4.99,000.00,024.9,024.2,000.0,033.5,026.5,019.3,0000.0,0003.01,0012.09,0001.02
2024-05-04 02:15:00,SystemResetWarning,0828.0,5.00,000.00,024.9,024.2,000.0,033.4,026.5,019.3,0000.0,0002.92,0011.86,0001.05
2024-05-04 02:16:00,SystemResetWarning,0828.0,4.99,000.00,024.9,024.2,000.0,033.4,026.5,019.3,0000.0,0002.93,0012.28,0001.06
2024-05-04 02:17:00,SystemResetWarning,0828.0,5.00,000.00,024.8,024.1,000.0,033.4,026.4,019.3,0000.0,0002.92,0012.71,0001.07
2024-05-04 02:18:00,SystemResetWarning,0828.0,5.01,000.00,024.8,024.1,000.0,033.4,026.5,019.3,0000.0,0002.93,0012.89,0001.07
2024-05-04 02:19:00,SystemResetWarning,0828.1,5.01,000.00,024.8,024.1,000.0,033.4,026.5,019.3,0000.0,0003.10,0012.97,0001.08
2024-05-04 02:20:00,SystemResetWarning,0828.0,5.00,000.00,024.8,024.1,000.0,033.4,026.4,019.3,0000.0,0003.13,0013.57,0001.08
2024-05-04 02:21:00,SystemResetWarning,0828.0,4.99,000.00,024.7,024.0,000.0,033.3,026.4,019.3,0000.0,0003.21,0013.55,0001.09
2024-05-04 02:22:00,SystemResetWarning,0828.0,4.99,000.00,024.7,024.0,000.0,033.3,026.3,019.4,0000.0,0003.24,0014.05,0001.10
2024-05-04 02:23:00,SystemResetWarning,0828.1,5.00,000.00,024.7,024.0,000.0,033.3,026.3,019.4,0000.0,0003.27,0013.79,0001.11
2024-05-04 02:24:00,SystemResetWarning,0828.1,5.00,000.00,024.7,024.0,000.0,033.3,026.3,019.5,0000.0,0003.29,0013.18,0001.12
2024-05-04 02:25:00,SystemResetWarning,0828.1,5.01,000.00,024.6,023.9,000.0,033.2,026.2,019.6,0000.0,0003.27,0012.72,0001.11
2024-05-04 02:26:00,SystemResetWarning,0828.1,5.00,000.00,024.6,023.9,000.0,033.2,026.2,019.7,0000.0,0003.24,0011.67,0001.10
2024-05-04 02:27:00,SystemResetWarning,0828.1,5.00,000.00,024.6,023.9,000.0,033.2,026.3,019.8,0000.0,0003.30,0011.57,0001.08
2024-05-04 02:28:00,SystemResetWarning,0828.1,5.00,000.00,024.6,023.9,000.0,033.2,026.3,019.9,0000.0,0003.30,0011.63,0001.09
2024-05-04 02:29:00,SystemResetWarning,0828.1,5.00,000.00,024.6,023.9,000.0,033.2,026.3,020.0,0000.0,0003.28,0011.26,0001.10
2024-05-04 02:30:00,SystemResetWarning,0828.2,5.00,000.00,024.6,023.9,000.0,033.2,026.3,020.1,0000.0,0003.23,0011.57,0001.09
2024-05-04 02:31:00,SystemResetWarning,0828.2,5.00,000.00,024.6,023.9,000.0,033.1,026.3,020.1,0000.0,0003.21,0011.14,0001.09
2024-05-04 02:32:00,SystemResetWarning,0828.2,5.00,000.00,024.6,023.8,000.0,033.1,026.2,020.2,0000.0,0003.16,0010.57,0001.09
2024-05-04 02:33:00,SystemResetWarning,0828.2,4.99,000.00,024.6,023.8,000.0,033.1,026.2,020.1,0000.0,0003.14,0010.24,0001.08
2024-05-04 02:34:00,SystemResetWarning,0828.2,5.01,000.00,024.5,023.8,000.0,033.1,026.2,020.1,0000.0,0003.14,0010.43,0001.08
2024-05-04 02:35:00,SystemResetWarning,0828.2,5.00,000.00,024.5,023.8,000.0,033.1,026.2,020.0,0000.0,0003.13,0010.63,0001.07
2024-05-04 02:36:00,SystemResetWarning,0828.2,4.99,000.00,024.5,023.7,000.0,033.1,026.1,020.0,0000.0,0003.12,0010.98,0001.08
2024-05-04 02:37:00,SystemResetWarning,0828.2,5.01,000.00,024.5,023.7,000.0,033.0,026.1,019.9,0000.0,0003.14,0011.24,0001.09
2024-05-04 02:38:00,SystemResetWarning,0828.1,5.01,000.00,024.5,023.7,000.0,033.0,026.1,019.6,0000.0,0003.17,0011.07,0001.11
2024-05-04 02:39:00,SystemResetWarning,0828.2,5.00,000.00,024.5,023.7,000.0,033.0,026.1,019.5,0000.0,0003.20,0010.62,0001.11
2024-05-04 02:40:00,SystemResetWarning,0828.2,5.00,000.00,024.4,023.7,000.0,033.0,026.1,019.2,0000.0,0003.18,0011.06,0001.11
2024-05-04 02:41:00,SystemResetWarning,0828.3,5.00,000.00,024.4,023.7,000.0,033.0,026.1,019.0,0000.0,0003.24,0011.07,0001.13
2024-05-04 02:42:00,SystemResetWarning,0828.3,4.99,000.00,024.4,023.7,000.0,033.0,026.0,019.0,0000.0,0003.29,0011.03,0001.14
2024-05-04 02:43:00,SystemResetWarning,0828.3,5.01,000.00,024.4,023.7,000.0,033.0,026.0,019.2,0000.0,0003.34,0011.72,0001.15
2024-05-04 02:44:00,SystemResetWarning,0828.3,5.01,000.00,024.4,023.7,000.0,033.0,026.0,019.4,0000.0,0003.37,0013.07,0001.17
2024-05-04 02:45:00,SystemResetWarning,0828.4,5.00,000.00,024.3,023.7,000.0,032.9,026.0,019.4,0000.0,0003.41,0013.81,0001.17
2024-05-04 02:46:00,SystemResetWarning,0828.4,4.99,000.00,024.3,023.6,000.0,032.9,025.9,019.5,0000.0,0003.43,0014.01,0001.18
2024-05-04 02:47:00,SystemResetWarning,0828.4,5.01,000.00,024.3,023.6,000.0,032.9,026.0,019.5,0000.0,0003.48,0015.03,0001.18
2024-05-04 02:48:00,SystemResetWarning,0828.4,5.01,000.00,024.3,023.7,000.0,032.9,026.0,019.4,0000.0,0003.51,0016.22,0001.18
2024-05-04 02:49:00,SystemResetWarning,0828.4,4.99,000.00,024.3,023.7,000.0,032.9,026.0,019.2,0000.0,0003.52,0016.45,0001.18
2024-05-04 02:50:00,SystemResetWarning,0828.4,4.99,000.00,024.3,023.7,000.0,032.9,026.0,018.9,0000.0,0003.48,0017.04,0001.17
2024-05-04 02:51:00,SystemResetWarning,0828.4,5.02,000.00,024.3,023.7,000.0,032.9,026.0,019.2,0000.0,0003.47,0017.28,0001.16
2024-05-04 02:52:00,SystemResetWarning,0828.4,4.99,000.00,024.3,023.6,000.0,032.8,025.8,019.3,0000.0,0003.41,0017.16,0001.16
2024-05-04 02:53:00,SystemResetWarning,0828.4,4.99,000.00,024.2,023.6,000.0,032.8,025.9,019.4,0000.0,0003.32,0017.65,0001.15
2024-05-04 02:54:00,SystemResetWarning,0828.4,5.01,000.00,024.2,023.6,000.0,032.8,025.9,019.4,0000.0,0003.33,0017.30,0001.16
2024-05-04 02:55:00,SystemResetWarning,0828.4,5.02,000.00,024.2,023.6,000.0,032.8,025.9,019.5,0000.0,0003.33,0015.94,0001.16
2024-05-04 02:56:00,SystemResetWarning,0828.6,4.99,000.00,024.2,023.6,000.0,032.8,025.9,019.5,0000.0,0003.29,0015.15,0001.16
2024-05-04 02:57:00,SystemResetWarning,0828.6,4.99,000.00,024.2,023.6,000.0,032.8,025.9,019.5,0000.0,0003.27,0015.80,0001.17
2024-05-04 02:58:00,SystemResetWarning,0828.6,5.00,000.00,024.2,023.6,000.0,032.8,025.8,019.4,0000.0,0003.25,0015.84,0001.17
2024-05-04 02:59:00,SystemResetWarning,0828.7,5.02,000.00,024.2,023.6,000.0,032.8,025.8,019.3,0000.0,0003.25,0015.23,0001.18
